OBJECT AC, 62403

Orbit data source: Space-Track

You're viewing an Uncataloged Satellite

Recently launched and/or uncataloged satellites may have evolving metadata. Metadata may include but not limited to: Owner, Maufacturer, Bus, Motor, and Mission.

OBJECT AC, 62403 is a satellite in LEO that was launched on Sat, 21 Dec 2024 UTC via an FALCON 9 launch vehicle from the Air Force Western Test Range (AFWTR). Unknown objects in Earth's orbit typically refer to objects detected orbiting the Earth but have not yet been identified or cataloged. These objects could be anything from previously untracked satellites, spent rocket stages, debris from satellite collisions, or even natural meteoroids temporarily captured by Earth's gravity.

Loading next visibility...
Identifier
62403, 2024-247AC
Orbit
LEO
Country
Flag of TBDTBD
Related business
None
Manufacturer
Unknown
Mission
Operational Commercial Communications
Bus & Motor
Unknown
Mass
Unknown
Launch date (UTC)
2024-12-21 (1 year ago)
Launch vehicle
FALCON 9
Launch site
Air Force Western Test Range (AFWTR)
Object type
Unknown
Shape & HBR
Box, 0.0 m
Radar Cross Section
0.004 m², Small (<0.1 m²)

Expand to show TLE details & history
Last TLE update: 1 day ago

TLE from 1 day ago
0 OBJECT AC
1 62403U 24247AC  26093.34797696  .00032005  00000-0  89341-3 0  9993
2 62403  45.0049 330.7936 0004358 188.4217 171.6597 15.36221583 71641
Epoch: 2026-04-03T08:21Z
TLE epoch observation values (Epoch: 2026-04-03T08:21:05.209Z)
Latitude
-0.00001°
Longitude
13.83849°
Altitude
460.241 km
Speed
7.637 km/s
True Right ascension
22h 03m 10s
True Declination
0° 00' 00"
Sunlit
Object was in daylight at epoch
Visualization orbit readout
Latitude
Unknown
Longitude
Unknown
Altitude
Unknown
Speed
Unknown
Apparent Right ascension
Unknown
Apparent Declination
Unknown
Sunlit
N/A
Visualization observer readout
Local Sidereal Time
20:17:06
Azimuth
Unknown
Elevation
Unknown
Doppler factor
Unknown
Orbital elements
Apogee altitude
461.888 km
Perigee altitude
455.929 km
Semi-major axis
6,837.046 km
Eccentricity
0.00044
Inclination
45.0049°
RAAN
330.7936°
Arg. of periapsis
188.4217°
True anomaly
171.66694°
Mean anomaly
171.6597°
Eccentric anomaly
171.66332°
Mean motion
3.8392 °/min
Orbital period
93.77 mins
BSTAR
0.00089341
Loading maneuver chart data...
Computing Atmospheric mass density...
Loading historical data...
Loading historical data...
Loading historical data...
Loading historical data...
Loading historical data...
Loading historical data...
Loading historical data...

Documentation

Showing up to 5 results
|